Flag for Austria Weather past 2 weeks in Graz, Styria, Austria

Now
63 °F

Passing clouds.


Feels Like: 63 °F
Forecast: 63 / 80 °F
Wind: 3 mph from South

Location: Graz-Thalerhof-Flughafen

Current Time: Aug 1, 2014 at 4:11:01 AM

Latest Report: Aug 1, 2014 at 3:20 AM


Visibility: N/A

Pressure: 29.89 "Hg

Humidity: 94%

Dew point: 61 °F

Location of GrazLocation

Historic Weather in Graz — Graph

°F

Graz temperature yesterday

Maximum temperature yesterday: 75 °F (at 2:20 PM)
Minimum temperature yesterday: 64 °F (at 12:20 AM)
Average temperature yesterday: 68 °F

Past Weeks' High & Low Weather Summary

 TemperatureHumidityPressure
High88 °F (Jul 20, 3:50 PM)100% (Jul 18, 5:20 AM)30.15 "Hg (Jul 18, 5:20 AM)
Low55 °F (Jul 24, 4:20 AM)40% (Jul 18, 11:50 AM)29.71 "Hg (Jul 30, 4:50 PM)
Average69 °F79%29.91 "Hg
* Reported Jul 17 2:20 AM — Aug 1 2:50 AM, Graz, Weather by CustomWeather, © 2014

Note: Actual official high and low records may vary slightly from our data, if they occured in-between our weather recording intervals... More about our weather records

Advertising

Graz weather history for previous 24 hours

 ConditionsComfort  
Time TempWeatherWind HumidityBarometerVisibility
2:50 AM
Aug 1
64 °FPassing clouds.2 mph94%29.89 "HgN/A
2:20 AM63 °FSnow. Overcast.1 mph100%29.89 "Hg6 mi
1:50 AM64 °FFog.1 mph100%29.92 "Hg1 mi
1:20 AM64 °FMild.1 mph94%29.92 "Hg4 mi
12:50 AM66 °FPassing clouds.1 mph94%29.92 "HgN/A
12:20 AM66 °FPassing clouds.2 mph94%29.92 "HgN/A
11:50 PM
Jul 31
66 °FPartly cloudy.1 mph94%29.92 "HgN/A
11:20 PM66 °FPartly cloudy.2 mph94%29.92 "HgN/A
10:50 PM68 °FPartly cloudy.3 mph88%29.92 "HgN/A
10:20 PM68 °FPartly cloudy.2 mph94%29.92 "HgN/A
9:50 PM68 °FPartly cloudy.2 mph94%29.89 "HgN/A
9:20 PM70 °FSprinkles. Partly sunny.3 mph83%29.89 "HgN/A
8:50 PM68 °FPartly sunny.3 mph94%29.89 "HgN/A
8:20 PM70 °FBroken clouds.2 mph88%29.89 "HgN/A
7:50 PM70 °FBroken clouds.5 mph88%29.89 "HgN/A
7:20 PM68 °FSprinkles. Broken clouds.3 mph94%29.86 "HgN/A
6:50 PM70 °FPartly sunny.3 mph88%29.86 "HgN/A
6:20 PM70 °FBroken clouds.2 mph88%29.86 "HgN/A
5:50 PM70 °FSprinkles. Broken clouds.2 mph88%29.86 "HgN/A
5:20 PM70 °FBroken clouds.5 mph88%29.86 "HgN/A
4:50 PM68 °FBroken clouds.7 mph94%29.86 "HgN/A
4:20 PM70 °FBroken clouds.8 mph83%29.86 "HgN/A
3:50 PM70 °FBroken clouds.7 mph88%29.86 "HgN/A
3:20 PM72 °FSprinkles. Broken clouds.5 mph83%29.86 "Hg5 mi
2:50 PM72 °FSprinkles. Broken clouds.7 mph83%29.86 "HgN/A
2:20 PM75 °FBroken clouds.7 mph69%29.86 "HgN/A
1:50 PM73 °FBroken clouds.7 mph83%29.83 "HgN/A
1:20 PM73 °FBroken clouds.2 mph74%29.83 "HgN/A
12:50 PM73 °FBroken clouds.3 mph74%29.83 "HgN/A
12:20 PM73 °FBroken clouds.2 mph74%29.83 "HgN/A
11:50 AM72 °FBroken clouds.3 mph78%29.83 "HgN/A
11:20 AM72 °FBroken clouds.3 mph78%29.83 "HgN/A
10:50 AM70 °FBroken clouds.3 mph83%29.83 "Hg6 mi
10:20 AM68 °FBroken clouds.2 mph94%29.83 "Hg6 mi
9:50 AM68 °FBroken clouds.1 mph94%29.83 "Hg6 mi
9:20 AM66 °FBroken clouds.1 mph94%29.83 "Hg4 mi
8:50 AM66 °FFog.1 mph94%29.83 "Hg3 mi
8:20 AM64 °FBroken clouds.2 mph100%29.80 "Hg2 mi
7:50 AM64 °FPartly sunny.2 mph100%29.80 "Hg2 mi
7:20 AM64 °FFog.1 mph94%29.80 "Hg3 mi
6:50 AM64 °FSnow. Cloudy.1 mph94%29.80 "Hg3 mi
6:20 AM64 °FSnow. Overcast.2 mph94%29.80 "Hg3 mi
5:50 AM64 °FSnow. Overcast.2 mph94%29.80 "Hg3 mi
5:20 AM64 °FPassing clouds.1 mph94%29.80 "Hg4 mi
4:50 AM64 °FPartly cloudy.2 mph94%29.80 "Hg4 mi
4:20 AM64 °FPartly cloudy.2 mph94%29.77 "Hg4 mi
Weather by CustomWeather, © 2014

See weather overviewHow to use our weather pages